| time (UTC) | temp F | wind direction | speed MPH | gust MPH | rain 1hr in | rain 24hr in | rain mn in | humidity % | barometer mb |
| 20260504190903 | 78 | 34 | 0.0 | 3.0 | 0.00 | 0.00 | 0.00 | 36 | 1013.4 |
| 20260504190403 | 78 | 5 | 0.0 | 2.0 | 0.00 | 0.00 | 0.00 | 38 | 1013.5 |
| 20260504185901 | 78 | 66 | 0.0 | 2.0 | 0.00 | 0.00 | 0.00 | 37 | 1013.6 |
| 20260504185401 | 78 | 49 | 1.0 | 4.0 | 0.00 | 0.00 | 0.00 | 38 | 1013.7 |
| 20260504185120 | 78 | 20 | 1.0 | 4.0 | 0.00 | 0.00 | 0.00 | 37 | 1013.8 |
| 20260504184400 | 78 | 43 | 0.0 | 4.0 | 0.00 | 0.00 | 0.00 | 38 | 1013.6 |
| 20260504183901 | 78 | 359 | 0.0 | 4.0 | 0.00 | 0.00 | 0.00 | 37 | 1013.7 |
| 20260504183627 | 78 | 60 | 0.0 | 4.0 | 0.00 | 0.00 | 0.00 | 37 | 1013.7 |
| 20260504182901 | 77 | 40 | 0.0 | 4.0 | 0.00 | 0.00 | 0.00 | 37 | 1013.8 |
| 20260504182401 | 77 | 250 | 0.0 | 4.0 | 0.00 | 0.00 | 0.00 | 38 | 1014.0 |
| 20260504181900 | 77 | 251 | 0.0 | 4.0 | 0.00 | 0.00 | 0.00 | 38 | 1014.1 |
| 20260504181404 | 77 | 43 | 0.0 | 4.0 | 0.00 | 0.00 | 0.00 | 36 | 1014.2 |
| 20260504180903 | 77 | 50 | 0.0 | 1.0 | 0.00 | 0.00 | 0.00 | 38 | 1014.1 |
| 20260504180403 | 77 | 358 | 0.0 | 2.0 | 0.00 | 0.00 | 0.00 | 39 | 1014.2 |
| 20260504175903 | 77 | 64 | 0.0 | 2.0 | 0.00 | 0.00 | 0.00 | 39 | 1014.2 |
| 20260504175404 | 77 | 53 | 0.0 | 3.0 | 0.00 | 0.00 | 0.00 | 38 | 1014.2 |
| 20260504175129 | 77 | 152 | 0.0 | 3.0 | 0.00 | 0.00 | 0.00 | 38 | 1014.2 |
| 20260504174403 | 76 | 93 | 0.0 | 3.0 | 0.00 | 0.00 | 0.00 | 38 | 1014.3 |
| 20260504174125 | 76 | 12 | 0.0 | 4.0 | 0.00 | 0.00 | 0.00 | 38 | 1014.4 |
| 20260504173403 | 76 | 46 | 0.0 | 4.0 | 0.00 | 0.00 | 0.00 | 38 | 1014.5 |
| 20260504172905 | 76 | 299 | 0.0 | 2.0 | 0.00 | 0.00 | 0.00 | 40 | 1014.4 |
| 20260504172627 | 76 | 21 | 0.0 | 2.0 | 0.00 | 0.00 | 0.00 | 40 | 1014.6 |
| 20260504172125 | 76 | 332 | 0.0 | 2.0 | 0.00 | 0.00 | 0.00 | 40 | 1014.7 |
| 20260504171622 | 76 | 348 | 0.0 | 2.0 | 0.00 | 0.00 | 0.00 | 40 | 1014.7 |
| 20260504170903 | 76 | 35 | 0.0 | 1.0 | 0.00 | 0.00 | 0.00 | 42 | 1014.8 |
| 20260504170624 | 75 | 30 | 0.0 | 1.0 | 0.00 | 0.00 | 0.00 | 45 | 1014.9 |
| 20260504160341 | 73 | 36 | 0.0 | 1.0 | 0.00 | 0.00 | 0.00 | 45 | 1015.6 |
| 20260504150829 | 69 | 145 | 0.0 | 3.0 | 0.00 | 0.00 | 0.00 | 55 | 1015.8 |
| 20260504150328 | 69 | 83 | 0.0 | 2.0 | 0.00 | 0.00 | 0.00 | 58 | 1015.8 |
| 20260504141329 | 66 | 343 | 0.0 | 3.0 | 0.00 | 0.00 | 0.00 | 66 | 1016.2 |
| 20260504140829 | 66 | 107 | 0.0 | 3.0 | 0.00 | 0.00 | 0.00 | 67 | 1016.3 |
| 20260504140329 | 65 | 114 | 0.0 | 1.0 | 0.00 | 0.00 | 0.00 | 70 | 1016.2 |
| 20260504130331 | 57 | 31 | 0.0 | 0.0 | 0.00 | 0.00 | 0.00 | 80 | 1016.6 |
| 20260504110247 | 45 | 256 | 0.0 | 0.0 | 0.00 | 0.00 | 0.00 | 92 | 1016.7 |
| 20260504100451 | 45 | 247 | 0.0 | 0.0 | 0.00 | 0.00 | 0.00 | 89 | 1016.3 |
| 20260504081728 | 46 | 246 | 0.0 | 0.0 | 0.00 | 0.00 | 0.00 | 82 | 1016.4 |
| 20260504081229 | 46 | 246 | 0.0 | 0.0 | 0.00 | 0.00 | 0.00 | 82 | 1016.5 |
| 20260504080729 | 46 | 246 | 0.0 | 0.0 | 0.00 | 0.00 | 0.00 | 82 | 1016.5 |
| 20260504080454 | 46 | 246 | 0.0 | 0.0 | 0.00 | 0.00 | 0.00 | 81 | 1016.4 |
| 20260504070211 | 46 | 266 | 0.0 | 0.0 | 0.00 | 0.00 | 0.00 | 81 | 1016.4 |
| 20260504060154 | 46 | 266 | 0.0 | 0.0 | 0.00 | 0.00 | 0.00 | 80 | 1016.6 |
| 20260504050630 | 47 | 266 | 0.0 | 0.0 | 0.00 | 0.00 | 0.00 | 77 | 1016.7 |
| 20260504050129 | 47 | 266 | 0.0 | 0.0 | 0.00 | 0.00 | 0.00 | 77 | 1016.7 |
| 20260504045629 | 47 | 266 | 0.0 | 0.0 | 0.00 | 0.00 | 0.00 | 77 | 1016.7 |
| 20260504045347 | 47 | 266 | 0.0 | 0.0 | 0.00 | 0.00 | 0.00 | 76 | 1016.7 |
| 20260504044850 | 47 | 266 | 0.0 | 0.0 | 0.00 | 0.00 | 0.00 | 76 | 1016.7 |
| 20260504044129 | 47 | 266 | 0.0 | 0.0 | 0.00 | 0.00 | 0.00 | 77 | 1016.7 |
| 20260504043629 | 47 | 266 | 0.0 | 0.0 | 0.00 | 0.00 | 0.00 | 77 | 1016.7 |
| 20260504043128 | 47 | 266 | 0.0 | 0.0 | 0.00 | 0.00 | 0.00 | 76 | 1016.7 |
| 20260504042629 | 47 | 266 | 0.0 | 0.0 | 0.00 | 0.00 | 0.00 | 77 | 1016.8 |
| 20260504042131 | 47 | 266 | 0.0 | 0.0 | 0.00 | 0.00 | 0.00 | 76 | 1016.7 |
| 20260504041629 | 47 | 266 | 0.0 | 0.0 | 0.00 | 0.00 | 0.00 | 76 | 1016.7 |
| 20260504041129 | 47 | 266 | 0.0 | 0.0 | 0.00 | 0.00 | 0.00 | 75 | 1016.7 |
| 20260504040833 | 47 | 266 | 0.0 | 0.0 | 0.00 | 0.00 | 0.00 | 74 | 1016.6 |
| 20260504040819 | 47 | 266 | 0.0 | 0.0 | 0.00 | 0.00 | 0.00 | 74 | 1016.6 |
| 20260504035625 | 47 | 266 | 0.0 | 0.0 | 0.00 | 0.00 | 0.00 | 73 | 1016.6 |
| 20260504035123 | 47 | 266 | 0.0 | 0.0 | 0.00 | 0.00 | 0.00 | 73 | 1016.6 |
| 20260504034844 | 47 | 266 | 0.0 | 0.0 | 0.00 | 0.00 | 0.00 | 73 | 1016.7 |
| 20260504034348 | 48 | 266 | 0.0 | 0.0 | 0.00 | 0.00 | 0.00 | 73 | 1016.7 |
| 20260504033621 | 48 | 266 | 0.0 | 0.0 | 0.00 | 0.00 | 0.00 | 74 | 1016.6 |
| 20260504033120 | 48 | 266 | 0.0 | 0.0 | 0.00 | 0.00 | 0.00 | 74 | 1016.6 |
| 20260504032617 | 48 | 266 | 0.0 | 0.0 | 0.00 | 0.00 | 0.00 | 74 | 1016.6 |
| 20260504032117 | 48 | 266 | 0.0 | 0.0 | 0.00 | 0.00 | 0.00 | 74 | 1016.6 |
| 20260504031616 | 48 | 266 | 0.0 | 0.0 | 0.00 | 0.00 | 0.00 | 74 | 1016.6 |
| 20260504031115 | 48 | 266 | 0.0 | 0.0 | 0.00 | 0.00 | 0.00 | 74 | 1016.6 |
| 20260504030613 | 49 | 266 | 0.0 | 0.0 | 0.00 | 0.00 | 0.00 | 74 | 1016.5 |
| 20260504030111 | 49 | 266 | 0.0 | 0.0 | 0.00 | 0.00 | 0.00 | 74 | 1016.5 |
| 20260504025609 | 49 | 266 | 0.0 | 0.0 | 0.00 | 0.00 | 0.00 | 74 | 1016.4 |
| 20260504025108 | 49 | 266 | 0.0 | 0.0 | 0.00 | 0.00 | 0.00 | 73 | 1016.4 |
| 20260504024605 | 49 | 266 | 0.0 | 0.0 | 0.00 | 0.00 | 0.00 | 73 | 1016.4 |
| 20260504024103 | 49 | 266 | 0.0 | 0.0 | 0.00 | 0.00 | 0.00 | 72 | 1016.5 |
| 20260504023604 | 49 | 271 | 0.0 | 0.0 | 0.00 | 0.00 | 0.00 | 73 | 1016.3 |
| 20260504023103 | 49 | 308 | 0.0 | 0.0 | 0.00 | 0.00 | 0.00 | 73 | 1016.4 |
| 20260504022603 | 49 | 308 | 0.0 | 0.0 | 0.00 | 0.00 | 0.00 | 73 | 1016.5 |
| 20260504022104 | 49 | 308 | 0.0 | 0.0 | 0.00 | 0.00 | 0.00 | 72 | 1016.4 |
| 20260504021603 | 50 | 308 | 0.0 | 0.0 | 0.00 | 0.00 | 0.00 | 71 | 1016.4 |
| 20260504021101 | 50 | 308 | 0.0 | 0.0 | 0.00 | 0.00 | 0.00 | 69 | 1016.4 |
| 20260504020601 | 50 | 308 | 0.0 | 0.0 | 0.00 | 0.00 | 0.00 | 69 | 1016.4 |
| 20260504020101 | 50 | 308 | 0.0 | 0.0 | 0.00 | 0.00 | 0.00 | 70 | 1016.4 |
| 20260504015600 | 50 | 308 | 0.0 | 0.0 | 0.00 | 0.00 | 0.00 | 70 | 1016.4 |
| 20260504015101 | 50 | 308 | 0.0 | 0.0 | 0.00 | 0.00 | 0.00 | 69 | 1016.4 |
| 20260504014601 | 50 | 308 | 0.0 | 0.0 | 0.00 | 0.00 | 0.00 | 68 | 1016.4 |
| 20260504014101 | 51 | 308 | 0.0 | 0.0 | 0.00 | 0.00 | 0.00 | 70 | 1016.4 |
| 20260504013601 | 51 | 308 | 0.0 | 0.0 | 0.00 | 0.00 | 0.00 | 68 | 1016.3 |
| 20260504013100 | 51 | 308 | 0.0 | 0.0 | 0.00 | 0.00 | 0.00 | 67 | 1016.2 |
| 20260504012602 | 51 | 308 | 0.0 | 0.0 | 0.00 | 0.00 | 0.00 | 68 | 1016.2 |
| 20260504012101 | 51 | 308 | 0.0 | 0.0 | 0.00 | 0.00 | 0.00 | 67 | 1016.1 |
| 20260504011601 | 51 | 308 | 0.0 | 0.0 | 0.00 | 0.00 | 0.00 | 67 | 1016.1 |
| 20260504011322 | 51 | 308 | 0.0 | 0.0 | 0.00 | 0.00 | 0.00 | 69 | 1015.9 |
| 20260504010603 | 51 | 308 | 0.0 | 0.0 | 0.00 | 0.00 | 0.00 | 66 | 1015.8 |
| 20260504005603 | 52 | 308 | 0.0 | 0.0 | 0.00 | 0.00 | 0.00 | 65 | 1015.7 |
| 20260504005103 | 52 | 308 | 0.0 | 0.0 | 0.00 | 0.00 | 0.00 | 64 | 1015.7 |
| 20260504004603 | 53 | 308 | 0.0 | 0.0 | 0.00 | 0.00 | 0.00 | 62 | 1015.6 |
| 20260504004104 | 53 | 308 | 0.0 | 0.0 | 0.00 | 0.00 | 0.00 | 61 | 1015.5 |
| 20260504003604 | 53 | 308 | 0.0 | 0.0 | 0.00 | 0.00 | 0.00 | 60 | 1015.5 |
| 20260504003105 | 54 | 308 | 0.0 | 0.0 | 0.00 | 0.00 | 0.00 | 60 | 1015.4 |
| 20260504002603 | 54 | 308 | 0.0 | 0.0 | 0.00 | 0.00 | 0.00 | 57 | 1015.5 |
| 20260504002104 | 55 | 308 | 0.0 | 0.0 | 0.00 | 0.00 | 0.00 | 55 | 1015.5 |
| 20260504001603 | 55 | 308 | 0.0 | 0.0 | 0.00 | 0.00 | 0.00 | 55 | 1015.3 |
| 20260504001325 | 56 | 308 | 0.0 | 0.0 | 0.00 | 0.00 | 0.00 | 54 | 1015.2 |
| 20260504000604 | 56 | 308 | 0.0 | 0.0 | 0.00 | 0.00 | 0.00 | 53 | 1015.2 |
| 20260503235603 | 58 | 308 | 0.0 | 0.0 | 0.00 | 0.00 | 0.00 | 54 | 1015.1 |
| 20260503235104 | 58 | 308 | 0.0 | 0.0 | 0.00 | 0.00 | 0.00 | 54 | 1015.2 |
| 20260503234828 | 59 | 320 | 0.0 | 0.0 | 0.00 | 0.00 | 0.00 | 52 | 1015.0 |
| 20260503234103 | 59 | 320 | 0.0 | 1.0 | 0.00 | 0.00 | 0.00 | 51 | 1015.1 |
| 20260503233604 | 60 | 320 | 0.0 | 1.0 | 0.00 | 0.00 | 0.00 | 50 | 1015.1 |
| 20260503233101 | 61 | 321 | 0.0 | 0.0 | 0.00 | 0.00 | 0.00 | 49 | 1015.1 |
| 20260503232601 | 61 | 322 | 0.0 | 0.0 | 0.00 | 0.00 | 0.00 | 47 | 1015.1 |
| 20260503232101 | 62 | 322 | 0.0 | 0.0 | 0.00 | 0.00 | 0.00 | 46 | 1015.1 |
| 20260503231601 | 63 | 14 | 0.0 | 0.0 | 0.00 | 0.00 | 0.00 | 44 | 1015.1 |
| 20260503231102 | 63 | 15 | 0.0 | 0.0 | 0.00 | 0.00 | 0.00 | 40 | 1015.0 |
| 20260503230601 | 63 | 357 | 0.0 | 0.0 | 0.00 | 0.00 | 0.00 | 38 | 1015.0 |
| 20260503230100 | 64 | 7 | 0.0 | 1.0 | 0.00 | 0.00 | 0.00 | 39 | 1015.0 |
| 20260503225601 | 64 | 54 | 0.0 | 1.0 | 0.00 | 0.00 | 0.00 | 38 | 1015.0 |
| 20260503225102 | 64 | 359 | 0.0 | 0.0 | 0.00 | 0.00 | 0.00 | 39 | 1015.0 |
| 20260503224601 | 64 | 97 | 0.0 | 0.0 | 0.00 | 0.00 | 0.00 | 38 | 1015.0 |
| 20260503224322 | 64 | 44 | 0.0 | 1.0 | 0.00 | 0.00 | 0.00 | 38 | 1015.1 |
| 20260503223600 | 64 | 102 | 0.0 | 1.0 | 0.00 | 0.00 | 0.00 | 37 | 1015.1 |
| 20260503223101 | 64 | 142 | 0.0 | 1.0 | 0.00 | 0.00 | 0.00 | 38 | 1015.0 |
| 20260503222601 | 64 | 22 | 0.0 | 1.0 | 0.00 | 0.00 | 0.00 | 36 | 1015.0 |
| 20260503222101 | 64 | 357 | 0.0 | 1.0 | 0.00 | 0.00 | 0.00 | 38 | 1015.0 |
| 20260503221600 | 64 | 41 | 0.0 | 1.0 | 0.00 | 0.00 | 0.00 | 39 | 1015.0 |
| 20260503221102 | 64 | 43 | 0.0 | 1.0 | 0.00 | 0.00 | 0.00 | 36 | 1014.9 |
| 20260503220820 | 65 | 44 | 0.0 | 1.0 | 0.00 | 0.00 | 0.00 | 37 | 1015.0 |
| 20260503220100 | 65 | 337 | 0.0 | 1.0 | 0.00 | 0.00 | 0.00 | 38 | 1015.0 |
| 20260503215600 | 65 | 33 | 0.0 | 1.0 | 0.00 | 0.00 | 0.00 | 37 | 1015.0 |
| 20260503215101 | 64 | 38 | 0.0 | 1.0 | 0.00 | 0.00 | 0.00 | 38 | 1015.0 |
| 20260503214822 | 64 | 281 | 0.0 | 2.0 | 0.00 | 0.00 | 0.00 | 35 | 1015.1 |
| 20260503214101 | 65 | 107 | 0.0 | 2.0 | 0.00 | 0.00 | 0.00 | 37 | 1015.2 |
| 20260503213601 | 65 | 118 | 0.0 | 1.0 | 0.00 | 0.00 | 0.00 | 36 | 1015.2 |
| 20260503213101 | 65 | 34 | 0.0 | 0.0 | 0.00 | 0.00 | 0.00 | 36 | 1015.2 |
| 20260503212603 | 65 | 50 | 0.0 | 4.0 | 0.00 | 0.00 | 0.00 | 36 | 1015.2 |
| 20260503212103 | 66 | 12 | 0.0 | 4.0 | 0.00 | 0.00 | 0.00 | 34 | 1015.2 |
| 20260503211823 | 65 | 6 | 0.0 | 1.0 | 0.00 | 0.00 | 0.00 | 36 | 1015.2 |
| 20260503211102 | 65 | 358 | 0.0 | 2.0 | 0.00 | 0.00 | 0.00 | 35 | 1015.2 |
| 20260503210605 | 66 | 9 | 0.0 | 2.0 | 0.00 | 0.00 | 0.00 | 35 | 1015.3 |
| 20260503210559 | 67 | 46 | 0.0 | 2.0 | 0.00 | 0.00 | 0.00 | 37 | 1015.3 |
| 20260503205604 | 67 | 38 | 0.0 | 2.0 | 0.00 | 0.00 | 0.00 | 35 | 1015.3 |
| 20260503205103 | 67 | 184 | 0.0 | 6.0 | 0.00 | 0.00 | 0.00 | 36 | 1015.3 |
| 20260503204602 | 67 | 3 | 0.0 | 6.0 | 0.00 | 0.00 | 0.00 | 36 | 1015.4 |
| 20260503204103 | 67 | 15 | 0.0 | 4.0 | 0.00 | 0.00 | 0.00 | 38 | 1015.4 |
| 20260503203604 | 67 | 6 | 0.0 | 4.0 | 0.00 | 0.00 | 0.00 | 34 | 1015.4 |
| 20260503203103 | 67 | 116 | 0.0 | 3.0 | 0.00 | 0.00 | 0.00 | 37 | 1015.5 |
| 20260503202602 | 67 | 65 | 0.0 | 2.0 | 0.00 | 0.00 | 0.00 | 36 | 1015.5 |
| 20260503202103 | 66 | 10 | 0.0 | 1.0 | 0.00 | 0.00 | 0.00 | 36 | 1015.5 |
| 20260503201603 | 66 | 17 | 0.0 | 1.0 | 0.00 | 0.00 | 0.00 | 34 | 1015.5 |
| 20260503201104 | 66 | 1 | 0.0 | 1.0 | 0.00 | 0.00 | 0.00 | 36 | 1015.6 |
| 20260503200604 | 66 | 41 | 0.0 | 3.0 | 0.00 | 0.00 | 0.00 | 34 | 1015.7 |
| 20260503195603 | 66 | 82 | 0.0 | 1.0 | 0.00 | 0.00 | 0.00 | 38 | 1015.9 |
| 20260503195103 | 66 | 41 | 0.0 | 8.0 | 0.00 | 0.00 | 0.00 | 36 | 1015.9 |
| 20260503194601 | 65 | 40 | 0.0 | 8.0 | 0.00 | 0.00 | 0.00 | 37 | 1016.0 |
| 20260503194326 | 66 | 56 | 0.0 | 4.0 | 0.00 | 0.00 | 0.00 | 36 | 1016.1 |
| 20260503193828 | 65 | 116 | 0.0 | 6.0 | 0.00 | 0.00 | 0.00 | 40 | 1016.1 |
| 20260503193329 | 65 | 107 | 0.0 | 6.0 | 0.00 | 0.00 | 0.00 | 37 | 1016.1 |
| 20260503192602 | 66 | 357 | 0.0 | 1.0 | 0.00 | 0.00 | 0.00 | 38 | 1016.2 |
| 20260503192100 | 66 | 42 | 0.0 | 1.0 | 0.00 | 0.00 | 0.00 | 37 | 1016.2 |
| 20260503191601 | 66 | 90 | 0.0 | 2.0 | 0.00 | 0.00 | 0.00 | 39 | 1016.5 |
| 20260503191101 | 65 | 31 | 0.0 | 5.0 | 0.00 | 0.00 | 0.00 | 35 | 1016.5 |